My Meet Scores
Tess Brooks, Gymnastics X-Calibur - MyMeetScores.com
Top100 | Top Teams | Upcoming Meets | Completed Meets | Latest | Add Scores | Help| Support | Bookmark and Share

Tess Brooks, Gymnastics X-Calibur
Personal Bests
LevelVault BarsBeamFloorAA
XG9.1509.350 9.2009.40036.725
XS9.4009.825 9.5259.77538.325
Meet Scores
Date Meet Team Session Level Division Vault Bars Beam Floor AA
2019-11-08 Illinois Judges Cup Gymnastics X-Calibur P6 XG All Ages 9.100 10T 9.350 5 8.500 22T 9.375 7T 36.325 7
2019-05-03 2019 Region 5 Xcel Championships Gymnastics X-Calibur 13O XS SR A 9.100 24T 9.600 9T 9.350 26T 9.675 4 37.725 11T
2019-04-13 2019 Illinois XB, XS State Championships Gymnastics X-Calibur 2 XS Sr B 9.400 11 9.825 2T 9.425 12T 9.675 3 38.325 3
2019-02-22 Gasparilla Classic Gymnastics X-Calibur A6 XG XG a6 grp4 8.400 5 9.150 6 8.800 8 8.850 10 35.200 7
2019-02-08 Midwest Twisters Harley Meet Womens Gymnastics X-Calibur S05 XG 11yrs. 9.000 2 8.425 12 8.750 9 8.900 13 35.075 9
2019-01-25 King Arthur Invitational Gymnastics X-Calibur 19 XG JR 9.150 4 8.975 6 9.200 4 9.400 3 36.725 1
2019-01-04 Leenda's Island Adventure Gymnastics X-Calibur P07 XG 11 Year Ol 8.500 15T 9.325 14 7.900 27 8.675 14 34.400 19
2018-11-30 Ultimate Wish Classic Gymnastics X-Calibur 9 XG JR 8.850 8T 8.850 11 8.725 11 9.275 8 35.700 9
2018-04-26 Xcel Region 5 Championships Gymnastics X-Calibur 8B XS Jr B 9.300 9 9.600 4 9.175 15 9.425 2 37.500 4
2018-04-06 XCEL State Championships Gymnastics X-Calibur 5A XS Jr B 9.175 9 9.525 9T 9.375 9 9.575 1 37.650 3
2018-03-01 Derby Classic 2018 Gymnastics X-Calibur 8A XS Sr A 9.250 2 8.575 14 8.550 11 9.100 6 35.475 10
2018-02-23 Kinetic Classic Gymnastics X-Calibur 5 XS Older 8.750 52T 9.400 24T 9.525 14T 9.600 6T 37.275 15T
2018-02-03 Midwest Games Gymnastics X-Calibur 2 XS SR A 9.050 4 9.575 2 9.125 7 9.550 1 37.300 1
2018-01-26 King Arthur Invitational Gymnastics X-Calibur 10 XS JR B 9.225 2 9.775 2 9.425 2 9.625 1 38.050 2
2018-01-04 Leenda's Island Adventure Gymnastics X-Calibur G07 XS 10 Year Ol 9.375 2 9.600 5 9.425 6 9.525 1 37.925 2
2017-12-01 Ultimate Wish Classic Gymnastics X-Calibur 14 XS JR2 8.950 3T 9.575 2 9.525 1 9.775 2 37.825 2
2017-05-11 2017 Region 5 Xcel Championships Gymnastics X-Calibur 4B XS Ch E 8.000 31 9.300 13T 9.100 19T 9.375 8 35.775 27
2017-04-21 2017 Illinois Xcel State Championships Gymnastics X-Calibur 5 XS Ch C 8.925 8 9.450 5T 8.600 23 9.525 2T 36.500 7
2017-01-20 2017 Bravo Classic Gymnastics X-Calibur 01B XS 6-9yrs 8.650 5T 9.450 3 9.425 4 8.800 5 36.325 3
2017-01-05 Leenda's Island Adventure Gymnastics X-Calibur G09 XS 9 and Unde 5.650 20 9.225 8 8.075 19 9.550 1T 32.500 20
2016-12-02 Ultimate Wish Classic Gymnastics X-Calibur 10 XS Junior 7.875 16 9.250 7 9.050 10T 9.275 2T 35.450 10
Get your scores on
a t-shirt, pin, or hoodie

Order by December 13

www.lazysuits.com